Location: Holcomb Observatory and Planetarium
(39.8415°N, 86.1714°W)
Time: 07:44:50
(UTC-04:00)

ISS - Visible Passes

Search period start: 30 September 2016 00:00
Search period end: 10 October 2016 00:00
Orbit: 400 x 409 km, 51.6° (Epoch: 30 September)

Date Brightness Start Highest point End Pass type
(mag) Time Alt. Az. Time Alt. Az. Time Alt. Az.
30 Sep -3.3 20:32:17 10° WSW 20:35:31 77° NW 20:37:47 18° NE visible
30 Sep 0.3 22:10:17 10° WNW 22:10:28 11° WNW 22:10:28 11° WNW visible
01 Oct -1.2 21:17:25 10° WNW 21:20:03 22° NNW 21:20:40 21° N visible
02 Oct -1.8 20:24:43 10° W 20:27:43 34° NNW 20:30:43 10° NE visible
03 Oct -0.7 21:10:30 10° NW 21:12:27 15° NNW 21:13:21 14° N visible
04 Oct -1.0 20:17:32 10° WNW 20:20:01 20° NNW 20:22:29 10° NNE visible
05 Oct -0.5 21:03:44 10° NNW 21:04:55 11° N 21:05:42 11° N visible
06 Oct -0.7 20:10:37 10° NW 20:12:22 14° NNW 20:14:07 10° NNE visible
07 Oct -0.5 20:56:40 10° NNW 20:57:22 11° N 20:57:51 10° N visible
08 Oct -0.6 20:03:46 10° NNW 20:04:45 11° N 20:05:44 10° NNE visible
09 Oct -0.7 20:48:33 10° NNW 20:49:46 12° N 20:49:54 12° N visible
